FW7308 Weather Reports


time (UTC)temp
C
wind
direction
speed
KPH
gust
KPH
rain 1hr
cm
rain 24hr
cm
rain mn
cm
humidity
%
barometer
mb
20260507001122 12 347 3.2 3.2 0.00 0.00 1.68 99 1007.3
20260507000622 12 338 1.6 1.6 0.00 0.00 1.68 99 1007.3
20260507000123 12 330 3.2 4.8 0.00 0.00 1.68 99 1007.3
20260506235121 12 313 4.8 4.8 0.00 0.00 1.68 99 1007.0
20260506234622 13 347 6.4 11.3 0.00 0.00 1.68 99 1007.0
20260506234121 13 327 1.6 4.8 0.00 0.00 1.68 99 1007.0
20260506233620 13 347 3.2 4.8 0.00 0.00 1.65 99 1007.0
20260506233120 13 329 1.6 1.6 0.00 0.00 1.57 99 1006.6
20260506232621 13 334 0.0 1.6 0.00 0.00 1.57 99 1006.6
20260506232120 13 315 0.0 1.6 0.00 0.00 1.55 99 1006.6
20260506231619 13 348 1.6 1.6 0.00 0.00 1.52 99 1006.3
20260506231118 13 0.0 0.0 0.00 0.00 1.47 99 1006.3
20260506230618 13 281 4.8 4.8 0.00 0.00 1.47 99 1006.6
20260506230119 13 112 8.0 9.7 0.00 0.00 1.40 99 1006.3
20260506225618 13 211 6.4 9.7 0.00 0.00 1.30 99 1006.3
20260506225118 13 218 4.8 8.0 0.00 0.00 1.27 99 1006.3
20260506224616 13 99 4.8 9.7 0.00 0.00 1.24 99 1006.3
20260506224119 13 323 3.2 3.2 0.00 0.00 1.22 99 1006.3
20260506223618 13 52 3.2 4.8 0.00 0.00 1.19 99 1006.3
20260506223146 13 171 6.4 9.7 0.00 0.00 1.19 99 1006.3
20260506222645 13 46 4.8 8.0 0.00 0.00 1.19 99 1006.3
20260506222147 13 101 4.8 8.0 0.00 0.00 1.19 99 1006.3
20260506221646 13 316 3.2 4.8 0.00 0.00 1.19 99 1006.3
20260506221145 13 181 4.8 8.0 0.00 0.00 1.19 99 1006.3
20260506220644 13 201 6.4 9.7 0.00 0.00 1.17 99 1006.5
20260506220143 13 4 4.8 8.0 0.00 0.00 1.17 99 1006.6
20260506215644 13 195 6.4 11.3 0.00 0.00 1.17 99 1006.6
20260506215143 13 175 12.9 16.1 0.00 0.00 1.17 99 1006.5
20260506214643 13 49 4.8 8.0 0.00 0.00 1.17 99 1006.3
20260506214142 13 166 9.7 11.3 0.00 0.00 1.17 99 1006.3
20260506213643 13 119 6.4 9.7 0.00 0.00 1.14 99 1006.3
20260506213142 13 7 3.2 4.8 0.00 0.00 1.14 99 1006.3
20260506212646 13 88 4.8 9.7 0.00 0.00 1.14 99 1006.3
20260506212141 13 140 4.8 4.8 0.00 0.00 1.14 99 1006.3
20260506211640 13 138 8.0 11.3 0.00 0.00 1.12 99 1006.5
20260506211141 13 173 9.7 16.1 0.00 0.00 1.12 99 1006.3
20260506210641 13 143 11.3 12.9 0.00 0.00 1.09 99 1006.3
20260506210139 13 155 9.7 14.5 0.00 0.00 1.09 99 1006.3
20260506205641 13 158 4.8 8.0 0.00 0.00 1.09 99 1006.3
20260506204639 13 170 11.3 12.9 0.00 0.00 1.09 99 1006.3
20260506204138 13 155 6.4 14.5 0.00 0.00 1.07 99 1006.3
20260506203639 13 106 9.7 16.1 0.00 0.00 1.07 99 1006.3
20260506202639 13 277 3.2 4.8 0.00 0.00 1.04 99 1006.3
20260506202137 13 178 11.3 17.7 0.00 0.00 1.04 99 1006.6
20260506201637 13 261 4.8 9.7 0.00 0.00 1.04 99 1006.6
20260506201138 14 80 8.0 9.7 0.00 0.00 1.04 99 1006.5
20260506200637 14 151 9.7 14.5 0.00 0.00 1.04 99 1006.6
20260506195737 14 188 11.3 16.1 0.00 0.00 1.02 99 1006.8
20260506195135 14 158 8.0 12.9 0.00 0.00 1.02 99 1006.6
20260506194635 14 159 9.7 14.5 0.00 0.00 1.02 99 1007.0
20260506194134 14 165 11.3 14.5 0.00 0.00 1.02 99 1006.8
20260506193637 14 142 9.7 12.9 0.00 0.00 0.99 99 1007.0
20260506193139 14 243 9.7 14.5 0.00 0.00 0.99 99 1007.0
20260506192634 14 121 8.0 12.9 0.00 0.00 0.99 99 1006.8
20260506192133 14 166 9.7 14.5 0.00 0.00 0.99 99 1007.0
20260506191632 14 119 11.3 14.5 0.00 0.00 0.97 99 1007.0
20260506191133 14 183 11.3 16.1 0.00 0.00 0.94 99 1007.0
20260506190632 14 169 12.9 17.7 0.00 0.00 0.94 99 1007.2
20260506190132 14 164 8.0 11.3 0.00 0.00 0.91 99 1007.0
20260506185630 14 90 6.4 11.3 0.00 0.00 0.89 99 1007.0
20260506185132 13 167 14.5 22.5 0.00 0.00 0.86 99 1007.3
20260506184632 13 170 6.4 8.0 0.00 0.00 0.84 99 1007.3
20260506184230 13 153 9.7 16.1 0.00 0.00 0.81 99 1007.3
20260506183629 13 93 4.8 8.0 0.00 0.00 0.76 99 1007.3
20260506183128 13 200 6.4 9.7 0.00 0.00 0.74 99 1007.7
20260506182630 13 162 9.7 14.5 0.00 0.00 0.69 99 1007.7
20260506182129 13 283 3.2 8.0 0.00 0.00 0.66 99 1007.7
20260506181628 13 35 3.2 3.2 0.00 0.00 0.64 99 1007.7
20260506181129 13 133 9.7 14.5 0.00 0.00 0.64 99 1008.0
20260506180628 13 352 3.2 3.2 0.00 0.00 0.61 99 1007.9
20260506180128 13 142 11.3 14.5 0.00 0.00 0.56 99 1008.4
20260506175629 13 158 9.7 12.9 0.00 0.00 0.53 99 1008.0
20260506175126 13 139 8.0 11.3 0.00 0.00 0.51 99 1008.2
20260506174727 13 111 11.3 14.5 0.00 0.00 0.46 99 1008.4
20260506174127 13 182 9.7 12.9 0.00 0.00 0.43 99 1008.7
20260506173625 13 175 6.4 11.3 0.00 0.00 0.41 99 1008.6
20260506173225 13 127 9.7 20.9 0.00 0.00 0.38 99 1008.7
20260506172624 13 113 9.7 14.5 0.00 0.00 0.36 99 1008.7
20260506172126 13 128 8.0 9.7 0.00 0.00 0.33 99 1008.7
20260506171626 13 180 4.8 8.0 0.00 0.00 0.30 99 1008.7
20260506171124 13 142 9.7 16.1 0.00 0.00 0.28 99 1009.1
20260506170623 13 144 6.4 8.0 0.00 0.00 0.23 99 1009.1
20260506170128 13 177 6.4 9.7 0.00 0.00 0.23 99 1009.1
20260506165626 13 153 4.8 8.0 0.00 0.00 0.20 99 1008.7
20260506165122 13 23 3.2 4.8 0.00 0.00 0.18 99 1008.9
20260506164622 13 213 6.4 8.0 0.00 0.00 0.15 99 1008.9
20260506164122 13 122 6.4 9.7 0.00 0.00 0.13 99 1008.7
20260506163622 13 210 8.0 11.3 0.00 0.00 0.10 99 1008.7
20260506163123 14 77 6.4 8.0 0.00 0.00 0.08 99 1009.1
20260506162724 14 81 8.0 12.9 0.00 0.00 0.08 99 1009.1
20260506162121 14 245 6.4 11.3 0.00 0.00 0.05 99 1009.1
20260506161621 14 201 8.0 17.7 0.00 0.00 0.03 99 1009.1
20260506161122 14 147 6.4 11.3 0.00 0.00 0.03 99 1009.1
20260506160620 14 102 8.0 11.3 0.00 0.00 0.03 99 1009.1
20260506160120 14 137 6.4 8.0 0.00 0.00 0.00 99 1009.3
20260506155619 14 158 11.3 14.5 0.00 0.00 0.00 98 1009.1
20260506155121 15 175 8.0 12.9 0.00 0.00 0.00 98 1009.1
20260506154619 15 144 14.5 16.1 0.00 0.00 0.00 97 1009.4
20260506154119 15 134 9.7 14.5 0.00 0.00 0.00 97 1009.4
20260506153618 14 34 4.8 4.8 0.00 0.00 0.00 97 1009.8
20260506153118 14 171 8.0 12.9 0.00 0.00 0.00 97 1009.4
20260506152620 14 157 14.5 22.5 0.00 0.00 0.00 96 1009.6
20260506152117 15 214 8.0 11.3 0.00 0.00 0.00 96 1009.8
20260506151617 14 107 4.8 8.0 0.00 0.00 0.00 96 1009.8
20260506151116 14 148 4.8 8.0 0.00 0.00 0.00 96 1009.8
20260506150619 14 92 6.4 11.3 0.00 0.00 0.00 95 1009.8
20260506150146 14 125 6.4 9.7 0.00 0.00 0.00 94 1010.1
20260506145647 14 170 8.0 11.3 0.00 0.00 0.00 93 1010.1
20260506144646 14 182 6.4 8.0 0.00 0.00 0.00 93 1010.1
20260506144145 14 124 4.8 8.0 0.00 0.00 0.00 93 1010.1
20260506143143 14 231 8.0 11.3 0.00 0.00 0.00 92 1010.1
20260506142645 14 119 6.4 8.0 0.00 0.00 0.00 92 1009.8
20260506142144 14 133 9.7 16.1 0.00 0.00 0.00 92 1009.8
20260506141643 14 58 4.8 8.0 0.00 0.00 0.00 92 1009.8
20260506141142 15 139 11.3 12.9 0.00 0.00 0.00 92 1009.8
20260506140742 15 144 9.7 11.3 0.00 0.00 0.00 93 1009.8
20260506140243 14 186 11.3 12.9 0.00 0.00 0.00 93 1009.8
20260506135641 14 132 9.7 12.9 0.00 0.00 0.00 93 1009.4
20260506135141 14 257 9.7 12.9 0.00 0.00 0.00 93 1009.4
20260506134640 14 127 9.7 16.1 0.00 0.00 0.00 94 1009.6
20260506134141 13 137 9.7 11.3 0.00 0.00 0.00 95 1009.8
20260506133640 13 129 4.8 4.8 0.00 0.00 0.00 96 1009.8
20260506133139 13 32 1.6 3.2 0.00 0.00 0.00 96 1009.8
20260506132638 13 178 8.0 12.9 0.00 0.00 0.00 96 1009.8
20260506132140 13 172 8.0 9.7 0.00 0.00 0.00 96 1009.8
20260506131639 13 266 3.2 3.2 0.00 0.00 0.00 97 1009.8
20260506131138 13 170 11.3 16.1 0.00 0.00 0.00 97 1010.1
20260506130637 13 185 8.0 11.3 0.00 0.00 0.00 97 1010.1
20260506130137 12 158 11.3 11.3 0.00 0.00 0.00 97 1010.1
20260506125638 12 61 4.8 8.0 0.00 0.00 0.00 97 1010.1
20260506125237 12 199 9.7 12.9 0.00 0.00 0.00 97 1010.1
20260506124636 12 167 6.4 9.7 0.00 0.00 0.00 97 1010.1
20260506124135 12 33 6.4 8.0 0.00 0.00 0.00 97 1010.5
20260506123637 12 321 3.2 3.2 0.00 0.00 0.00 97 1010.5
20260506123136 12 155 8.0 14.5 0.00 0.00 0.00 97 1010.1
20260506122635 12 40 3.2 8.0 0.00 0.00 0.00 98 1010.3
20260506122134 12 247 8.0 9.7 0.00 0.00 0.00 97 1010.1
20260506121635 12 193 8.0 11.3 0.00 0.00 0.00 98 1010.1
20260506121134 12 168 9.7 11.3 0.00 0.00 0.00 98 1009.8
20260506120734 12 168 9.7 11.3 0.00 0.00 0.00 98 1009.8
20260506120133 12 82 8.0 11.3 0.00 0.00 0.00 98 1009.8
20260506115634 12 137 6.4 9.7 0.00 0.00 0.00 98 1010.0
20260506115134 12 121 9.7 11.3 0.00 0.00 0.00 98 1009.8
20260506114736 12 220 4.8 8.0 0.00 0.00 0.00 98 1010.1
20260506114232 12 75 6.4 9.7 0.00 0.00 0.00 98 1010.1
20260506113637 12 306 4.8 8.0 0.00 0.00 0.00 98 1010.1
20260506113132 12 61 1.6 3.2 0.00 0.00 0.00 98 1010.1
20260506111736 12 185 11.3 12.9 0.00 0.00 0.00 97 1010.1
20260506111231 12 139 6.4 8.0 0.00 0.00 0.00 97 1010.1
20260506110630 12 267 8.0 11.3 0.00 0.00 0.00 97 1010.5
20260506110129 12 94 8.0 9.7 0.00 0.00 0.00 97 1010.1
20260506105631 12 295 3.2 3.2 0.00 0.00 0.00 97 1010.1
20260506105130 12 295 3.2 3.2 0.00 0.00 0.00 97 1010.1
20260506104629 12 146 6.4 9.7 0.00 0.00 0.00 96 1010.1
20260506104128 12 42 4.8 8.0 0.00 0.00 0.00 96 1010.1
20260506103627 12 344 3.2 4.8 0.00 0.00 0.00 97 1009.8
20260506103128 12 58 6.4 8.0 0.00 0.00 0.00 97 1010.1
20260506102627 12 58 6.4 8.0 0.00 0.00 0.00 97 1009.8
20260506102126 12 80 4.8 8.0 0.00 0.00 0.00 97 1009.8
20260506101631 12 47 4.8 8.0 0.00 0.00 0.00 97 1010.1
20260506101225 -17 0.0 0.0 0.00 0.00 0.00 1010.1
20260506100626 -17 0.0 0.0 0.00 0.00 0.00 1010.1
20260506100125 -17 0.0 0.0 0.00 0.00 0.00 1010.1
20260506095624 -17 0.0 0.0 0.00 0.00 0.00 1010.0
20260506095124 -17 0.0 0.0 0.00 0.00 0.00 1010.1
20260506094625 -17 0.0 0.0 0.00 0.00 0.00 1010.1
20260506094124 -17 0.0 0.0 0.00 0.00 0.00 1009.8
20260506093623 -17 0.0 0.0 0.00 0.00 0.00 1009.8
20260506093122 -17 0.0 0.0 0.00 0.00 0.00 1010.1
20260506092624 -17 0.0 0.0 0.00 0.00 0.00 1010.1
20260506092123 -17 0.0 0.0 0.00 0.00 0.00 1010.1
20260506091622 -17 0.0 0.0 0.00 0.00 0.00 1009.8
20260506091121 -17 0.0 0.0 0.00 0.00 0.00 1009.8
20260506090622 -17 0.0 0.0 0.00 0.00 0.00 1010.0
20260506090122 -17 0.0 0.0 0.00 0.00 0.00 1010.1
20260506085621 -17 0.0 0.0 0.00 0.00 0.00 1010.1
20260506085120 -17 0.0 0.0 0.00 0.00 0.00 1009.8
20260506084621 -17 0.0 0.0 0.00 0.00 0.00 1010.1
20260506084121 -17 0.0 0.0 0.00 0.00 0.00 1010.5
20260506083620 -17 0.0 0.0 0.00 0.00 0.00 1010.1
20260506083119 -17 0.0 0.0 0.00 0.00 0.00 1010.1
20260506082618 -17 0.0 0.0 0.00 0.00 0.00 1010.1
20260506082117 -17 0.0 0.0 0.00 0.00 0.00 1010.1
20260506081618 -17 0.0 0.0 0.00 0.00 0.00 1010.3
20260506081118 -17 0.0 0.0 0.00 0.00 0.00 1010.1
20260506080617 -17 0.0 0.0 0.00 0.00 0.00 1010.1
20260506080118 -17 0.0 0.0 0.00 0.00 0.00 1010.5
20260506073146 -17 0.0 0.0 0.00 0.00 0.00 1010.5
20260506072645 -17 0.0 0.0 0.00 0.00 0.00 1010.5
20260506072244 -17 0.0 0.0 0.00 0.00 0.00 1010.5
20260506071646 -17 0.0 0.0 0.00 0.00 0.00 1010.5
20260506071144 -17 0.0 0.0 0.00 0.00 0.00 1010.7
20260506070745 -17 0.0 0.0 0.00 0.00 0.00 1010.5
20260506070146 -17 0.0 0.0 0.00 0.00 0.00 1010.5
20260506062240 -17 0.0 0.0 0.00 0.00 0.00 1010.5
20260506061642 -17 0.0 0.0 0.00 0.00 0.00 1010.5
20260506061140 -17 0.0 0.0 0.00 0.00 0.00 1010.5
20260506060740 -17 0.0 0.0 0.00 0.00 0.00 1010.5
20260506060142 -17 0.0 0.0 0.00 0.00 0.00 1010.5
20260506051136 -17 0.0 0.0 0.00 0.00 0.00 1010.9
20260506050636 -17 0.0 0.0 0.00 0.00 0.00 1010.9
20260506050136 15 337 1.6 3.2 0.00 0.00 0.00 82 1010.7
20260506045136 15 70 4.8 8.0 0.00 0.00 0.00 81 1010.5
20260506043133 16 80 6.4 9.7 0.00 0.00 0.00 80 1010.9
20260506042631 16 203 8.0 9.7 0.00 0.00 0.00 81 1010.9
20260506042132 16 351 4.8 4.8 0.00 0.00 0.00 81 1010.5
20260506041132 16 212 4.8 11.3 0.00 0.00 0.00 81 1010.7
20260506040632 16 66 6.4 9.7 0.00 0.00 0.00 82 1010.7
20260506040131 16 1 3.2 3.2 0.00 0.00 0.00 83 1010.5
20260506035630 16 155 4.8 9.7 0.00 0.00 0.03 83 1010.5
20260506035131 16 14 3.2 4.8 0.00 0.00 0.03 83 1010.5
20260506034630 16 354 1.6 1.6 0.00 0.00 0.03 82 1010.5
20260506034131 16 2 1.6 3.2 0.00 0.00 0.03 83 1010.1
20260506033629 16 345 1.6 1.6 0.00 0.00 0.03 82 1010.5
20260506033128 16 49 4.8 8.0 0.00 0.00 0.03 82 1010.5
20260506032629 16 49 4.8 8.0 0.00 0.00 0.03 82 1010.5
20260506032129 16 239 4.8 8.0 0.00 0.00 0.03 82 1010.5
20260506031628 16 239 4.8 8.0 0.00 0.00 0.03 82 1010.7
20260506031127 -17 0.0 0.0 0.00 0.00 0.03 1010.9
20260506030627 -17 0.0 0.0 0.00 0.00 0.03 1010.9
20260506030125 -17 0.0 0.0 0.00 0.00 0.03 1010.9
20260506025126 -17 0.0 0.0 0.00 0.00 0.03 1010.9
20260506024124 -17 0.0 0.0 0.00 0.00 0.03 1010.5
20260506023625 -17 0.0 0.0 0.00 0.00 0.03 1010.5
20260506023126 -17 0.0 0.0 0.00 0.00 0.03 1010.5
20260506022124 -17 0.0 0.0 0.00 0.00 0.03 1010.5
20260506021627 -17 0.0 0.0 0.00 0.00 0.03 1010.5
20260506021124 -17 0.0 0.0 0.00 0.00 0.03 1010.5
20260506020622 -17 0.0 0.0 0.00 0.00 0.03 1010.7
20260506020123 -17 0.0 0.0 0.00 0.00 0.03
20260506015622 -17 0.0 0.0 0.00 0.00 0.03 1010.9
20260506015124 -17 0.0 0.0 0.00 0.00 0.03 1010.7
20260506014622 -17 0.0 0.0 0.00 0.00 0.03 1010.5
20260506014121 -17 0.0 0.0 0.00 0.00 0.03 1010.5
20260506013121 -17 0.0 0.0 0.00 0.00 0.03 1010.1
20260506012622 -17 0.0 0.0 0.00 0.00 0.03 1010.1
20260506012121 15 340 3.2 3.2 0.00 0.00 0.03 92 1010.3
20260506011621 15 340 3.2 3.2 0.00 0.00 0.03 92 1010.3
20260506010619 15 345 1.6 1.6 0.00 0.00 0.03 95 1010.1
20260506010126 15 0.0 0.0 0.00 0.00 0.03 94 1010.1
20260506005617 15 336 1.6 3.2 0.00 0.00 0.03 93 1009.8
20260506005118 16 7 3.2 3.2 0.00 0.00 0.03 89 1009.8
20260506004618 16 316 1.6 3.2 0.00 0.00 0.03 86 1010.0
20260506004118 17 343 0.0 1.6 0.00 0.00 0.00 80 1010.1
20260506003616 -17 0.0 0.0 0.00 0.00 0.00 1009.8
20260506003117 -17 0.0 0.0 0.00 0.00 0.00 1010.0
20260506002748 -17 0.0 0.0 0.00 0.00 0.00 1010.1
20260506002147 -17 0.0 0.0 0.00 0.00 0.00 1010.1
20260506001645 17 0.0 0.0 0.00 0.00 0.00 81 1010.1